Voltar ao catálogo

YAM-8

AtivoComunicaçõesSSO
NORAD 63254·PAYLOAD·🇺🇸 United States

Lançado Mar 15, 2025 de Vandenberg Space Force Base

Loading…

Próximas Passagens (próximas 24 horas)

TLE

AtualizadoSource: Space-Track

Época: Sep 14, 2026, 17:07 UTC

1 63254U 25052AW  26257.71348569  .00003047  00000-0  19501-3 0  9992
2 63254  97.6833 159.6144 0002525 121.3526 238.7950 15.09340956 82783

Acompanhe YAM-8 em tempo real com AllMySat

Download on the App Store